TimeCST,TemperatureF,Dew PointF,Humidity,Sea Level PressureIn,VisibilityMPH,Wind Direction,Wind SpeedMPH,Gust SpeedMPH,PrecipitationIn,Events,Conditions,WindDirDegrees,DateUTC
12:15 AM,34.3,30.9,87,29.90,10.0,NW,8.1,-,N/A,,Overcast,310,2012-12-19 06:15:00
12:35 AM,34.0,31.1,89,29.90,10.0,NW,5.8,-,N/A,,Overcast,310,2012-12-19 06:35:00
12:55 AM,34.0,30.9,89,29.90,10.0,NNW,8.1,-,N/A,,Overcast,330,2012-12-19 06:55:00
1:15 AM,33.4,30.6,89,29.91,10.0,NNW,5.8,-,N/A,,Overcast,340,2012-12-19 07:15:00
1:35 AM,33.1,30.4,90,29.91,10.0,North,9.2,-,N/A,,Overcast,360,2012-12-19 07:35:00
1:55 AM,32.9,30.2,90,29.93,10.0,NNW,6.9,-,N/A,,Overcast,330,2012-12-19 07:55:00
2:15 AM,32.9,30.2,90,29.94,7.0,Calm,Calm,-,N/A,,Overcast,0,2012-12-19 08:15:00
2:35 AM,32.9,30.4,90,29.94,7.0,NW,4.6,-,N/A,,Overcast,320,2012-12-19 08:35:00
2:55 AM,32.9,30.2,90,29.95,7.0,Calm,Calm,-,N/A,,Overcast,0,2012-12-19 08:55:00
3:15 AM,32.9,30.2,90,29.96,7.0,NNW,3.5,-,N/A,,Overcast,330,2012-12-19 09:15:00
3:35 AM,32.9,30.6,91,29.95,7.0,Calm,Calm,-,N/A,,Overcast,0,2012-12-19 09:35:00
3:55 AM,32.9,30.7,92,29.94,7.0,NNW,3.5,-,N/A,,Overcast,340,2012-12-19 09:55:00
4:15 AM,32.9,30.6,91,29.96,7.0,Calm,Calm,-,N/A,,Overcast,0,2012-12-19 10:15:00
4:35 AM,32.9,30.6,91,29.96,7.0,Calm,Calm,-,N/A,,Overcast,0,2012-12-19 10:35:00
4:55 AM,32.9,30.7,92,29.97,7.0,Calm,Calm,-,N/A,,Overcast,0,2012-12-19 10:55:00
5:15 AM,32.9,30.6,91,29.98,7.0,Calm,Calm,-,N/A,,Overcast,0,2012-12-19 11:15:00
5:35 AM,32.5,30.7,93,29.99,7.0,Calm,Calm,-,N/A,,Overcast,0,2012-12-19 11:35:00
5:55 AM,32.9,30.9,92,29.99,7.0,Calm,Calm,-,N/A,,Overcast,0,2012-12-19 11:55:00
6:15 AM,32.9,30.7,92,29.99,7.0,Calm,Calm,-,N/A,,Overcast,0,2012-12-19 12:15:00
6:35 AM,32.9,31.1,93,29.99,7.0,Calm,Calm,-,N/A,,Overcast,0,2012-12-19 12:35:00
6:55 AM,32.9,30.6,91,29.99,7.0,ENE,4.6,-,N/A,,Overcast,70,2012-12-19 12:55:00
7:15 AM,32.9,30.6,91,29.99,7.0,ENE,4.6,-,N/A,,Overcast,70,2012-12-19 13:15:00
7:35 AM,32.5,30.2,91,30.00,5.0,Calm,Calm,-,N/A,,Overcast,0,2012-12-19 13:35:00
7:55 AM,32.9,30.6,91,30.00,5.0,ENE,5.8,-,N/A,,Overcast,70,2012-12-19 13:55:00
8:15 AM,32.9,30.7,92,29.99,5.0,ENE,6.9,-,N/A,,Overcast,70,2012-12-19 14:15:00
8:35 AM,33.3,31.1,92,30.00,5.0,ENE,5.8,-,N/A,,Overcast,70,2012-12-19 14:35:00
8:55 AM,33.4,30.7,90,30.01,5.0,East,6.9,-,N/A,,Overcast,100,2012-12-19 14:55:00
9:15 AM,33.4,30.7,90,30.02,5.0,ESE,4.6,-,N/A,,Overcast,120,2012-12-19 15:15:00
9:35 AM,34.0,31.1,89,30.02,7.0,ESE,5.8,-,N/A,,Overcast,120,2012-12-19 15:35:00
9:55 AM,34.2,31.5,90,30.02,7.0,East,6.9,-,N/A,,Overcast,100,2012-12-19 15:55:00
10:15 AM,34.5,31.6,89,30.01,7.0,East,9.2,-,N/A,,Overcast,90,2012-12-19 16:15:00
10:35 AM,34.9,31.8,89,30.01,7.0,East,8.1,-,N/A,,Overcast,100,2012-12-19 16:35:00
10:55 AM,35.1,31.8,88,30.02,7.0,SE,5.8,-,N/A,,Overcast,130,2012-12-19 16:55:00
11:15 AM,35.6,32.0,87,30.01,7.0,ESE,8.1,-,N/A,,Overcast,120,2012-12-19 17:15:00
11:35 AM,36.0,32.0,86,30.00,7.0,East,5.8,-,N/A,,Mostly Cloudy,100,2012-12-19 17:35:00
11:55 AM,36.5,32.0,84,29.99,7.0,East,5.8,9.2,N/A,,Scattered Clouds,100,2012-12-19 17:55:00
12:15 PM,36.5,32.0,84,29.98,7.0,East,8.1,-,N/A,,Scattered Clouds,100,2012-12-19 18:15:00
12:35 PM,37.2,32.4,83,29.96,7.0,East,8.1,-,N/A,,Scattered Clouds,80,2012-12-19 18:35:00
12:55 PM,37.4,32.4,82,29.95,7.0,East,10.4,-,N/A,,Scattered Clouds,80,2012-12-19 18:55:00
1:15 PM,37.4,32.4,82,29.94,7.0,ENE,9.2,-,N/A,,Scattered Clouds,70,2012-12-19 19:15:00
1:35 PM,37.4,32.5,83,29.94,7.0,East,9.2,-,N/A,,Overcast,80,2012-12-19 19:35:00
1:55 PM,37.6,32.7,83,29.95,7.0,ESE,5.8,-,N/A,,Overcast,110,2012-12-19 19:55:00
2:15 PM,37.6,32.5,82,29.95,10.0,ESE,5.8,-,N/A,,Overcast,110,2012-12-19 20:15:00
2:35 PM,37.8,32.9,83,29.94,10.0,ENE,9.2,-,N/A,,Overcast,70,2012-12-19 20:35:00
2:55 PM,37.4,32.9,84,29.93,10.0,ENE,9.2,-,N/A,,Overcast,70,2012-12-19 20:55:00
3:15 PM,37.4,32.5,83,29.93,10.0,ENE,9.2,-,N/A,,Overcast,70,2012-12-19 21:15:00
3:35 PM,36.9,32.9,86,29.93,7.0,East,8.1,-,N/A,,Light Drizzle,90,2012-12-19 21:35:00
3:55 PM,36.7,32.9,86,29.92,7.0,East,8.1,-,N/A,,Overcast,90,2012-12-19 21:55:00
4:15 PM,36.5,33.1,87,29.91,7.0,East,9.2,-,N/A,Rain,Light Rain,90,2012-12-19 22:15:00
4:35 PM,36.5,33.1,87,29.91,7.0,East,9.2,-,N/A,,Overcast,80,2012-12-19 22:35:00
4:55 PM,36.5,33.1,87,29.90,7.0,ENE,10.4,-,N/A,,Overcast,60,2012-12-19 22:55:00
5:15 PM,36.5,33.3,88,29.89,7.0,NE,13.8,17.3,N/A,,Overcast,50,2012-12-19 23:15:00
5:35 PM,36.5,33.4,89,29.88,7.0,ENE,13.8,-,N/A,,Light Drizzle,70,2012-12-19 23:35:00
5:55 PM,36.5,33.6,89,29.87,7.0,East,13.8,20.7,N/A,,Overcast,80,2012-12-19 23:55:00
6:15 PM,36.5,33.6,89,29.87,7.0,East,13.8,21.9,N/A,,Overcast,80,2012-12-20 00:15:00
6:35 PM,36.5,33.8,90,29.86,7.0,East,16.1,21.9,N/A,,Overcast,80,2012-12-20 00:35:00
6:55 PM,36.7,34.0,90,29.85,7.0,ENE,17.3,24.2,N/A,,Overcast,70,2012-12-20 00:55:00
7:15 PM,36.9,34.2,90,29.83,7.0,East,16.1,21.9,N/A,,Overcast,80,2012-12-20 01:15:00
7:35 PM,37.4,34.3,89,29.82,7.0,East,16.1,20.7,N/A,,Overcast,80,2012-12-20 01:35:00
7:55 PM,37.4,34.7,90,29.80,7.0,East,17.3,23.0,N/A,,Overcast,80,2012-12-20 01:55:00
8:15 PM,37.4,34.9,91,29.79,7.0,East,13.8,21.9,N/A,,Overcast,90,2012-12-20 02:15:00
8:35 PM,36.9,34.9,93,29.79,5.0,East,12.7,20.7,N/A,Rain,Light Rain,90,2012-12-20 02:35:00
8:55 PM,37.2,35.2,93,29.77,5.0,ENE,15.0,21.9,0.01,Rain,Light Rain,60,2012-12-20 02:55:00
9:15 PM,37.2,35.6,94,29.74,3.0,NE,17.3,-,0.02,Rain,Rain,50,2012-12-20 03:15:00
9:35 PM,37.4,36.5,97,29.73,3.0,NE,11.5,-,0.03,Rain,Light Rain,50,2012-12-20 03:35:00
9:55 PM,37.4,36.5,97,29.71,3.0,NE,10.4,-,0.04,Rain-Thunderstorm,Light Thunderstorms and Rain,50,2012-12-20 03:55:00
10:15 PM,37.4,36.9,98,29.68,1.8,ENE,15.0,-,0.02,Rain,Rain,60,2012-12-20 04:15:00
10:35 PM,37.6,37.0,98,29.67,2.5,ENE,13.8,-,0.03,Rain,Light Rain,70,2012-12-20 04:35:00
10:55 PM,37.8,37.2,98,29.62,2.5,ENE,16.1,21.9,0.04,Rain,Rain,70,2012-12-20 04:55:00
11:15 PM,38.3,37.6,97,29.60,5.0,ENE,18.4,24.2,0.01,Rain,Rain,70,2012-12-20 05:15:00
11:35 PM,38.7,37.9,97,29.59,4.0,East,18.4,23.0,0.09,Rain,Heavy Rain,80,2012-12-20 05:35:00
11:55 PM,39.0,38.3,97,29.56,5.0,East,17.3,25.3,0.10,Rain-Thunderstorm,Light Thunderstorms and Rain,80,2012-12-20 05:55:00